Weather in Pattaya

Thailand     12°55′22″N   100°52′57″E
temp.,
°C
wind,
m/s
gust,
m/s
humid.,
%
clouds,
%
prec.,
mm/h
press.,
hPa
HPBL,
m
4 december, sat
sat401:00+20ne41166100 0.0 1015294
04:00+19ne51161100 0.0 1015263
07:00+18ne5136612 0.0 1017327
10:00+23ne8135598 0.0 1017666
13:00+25ne8952100 0.0 10141027
16:00+25ne5855100 0.0 10121112
19:00+21ne4463100 0.0 1014131
22:00+20ne357272 0.0 1016152
5 december, sun
sun501:00+18nne51173100 0.0 1015253
04:00+17ne5126930 0.0 1015305
07:00+15ne5147397 0.0 1016326
10:00+22ne6958100 0.0 1017619
13:00+25ne785384 0.0 10141099
16:00+26ne68565 0.0 10111215
19:00+21ne457080 0.0 1014182
22:00+20ne35725 0.0 1015121
6 december, mon
mon601:00+19ne3571100 0.0 1014139
04:00+18ne4876100 0.0 1013207
07:00+18ne49825 0.0 1015237
10:00+24ne610625 0.0 1016609
13:00+27ne785582 0.0 10131085
16:00+27ne675517 0.0 10111354
19:00+23ne46695 0.0 1013208
22:00+21ne410695 0.0 1014258
7 december, tue
tue701:00+20ne512669 0.0 1013343
04:00+19ne41270100 0.0 1013327
07:00+17ne487562 0.0 1015194
10:00+23ne912565 0.0 1016773
13:00+26ne795119 0.0 10131172
16:00+26ne675417 0.0 10121277
19:00+23ne3465100 0.0 1014113
22:00+21nne457238 0.0 1015116
8 december, wed
wed801:00+20nne35715 0.0 1014118
04:00+19ne356980 0.0 1013121
07:00+18ne367299 0.0 1015139
10:00+24ne5957100 0.0 1016573
13:00+28ne665293 0.0 10131095
16:00+27ne685798 0.0 10111213
19:00+23ene3672100 0.0 1013194
22:00+22ne3775100 0.0 1014183